Tracking 35331 objects as of 16-Sep-2026
HD Live streaming from Space Station
objects crossing your sky now

COSMOS 1646 DEB


COSMOS 1646 DEB is no longer on orbit


NORAD ID: 18624
Int'l Code: 1985-030H
Launch date: April 18, 1985
Source: Commonwealth of Independent States (former USSR) (CIS)
Launch site: TYURATAM MISSILE AND SPACE COMPLEX (TTMTR)
Decay date: 1987-12-08

Note: This is SATELLITE DEBRIS
Your satellite tracking list
Your tracking list is empty




NASA's NSSDC Master Catalog

Two Line Element Set (TLE):
1 18624U 85030  H 87339.14048079  .02497829 +00000-0 +83669-2 0  9995
2 18624 065.0187 233.3689 0020194 233.7828 126.1739 15.89408794002290
Source of the keplerian elements: AFSPC